User: anonymous   Login
Location: Borea
(45.6167°N, 23.0167°E)
Time: 05:33:07
(UTC+00:00)
Language:

COSMOS 2428 - Orbit

View from above orbital plane
View from above orbital plane
View from above satellite
View from above satellite

Ground track
Ground track

The orbit data is extracted from the following two-line orbital elements,

1 31792U 07029A   23159.39784148 -.00000141  00000-0 -50070-4 0  9998
2 31792  70.9289 153.2314 0009217 250.6550 109.3575 14.12545293822110
Epoch (UTC): 08 June 2023 09:32:53
Eccentricity: 0.0009217
inclination: 70.9289°
perigee height: 844 km
apogee height: 857 km
right ascension of ascending node: 153.2314°
argument of perigee: 250.6550°
revolutions per day: 14.12545293
mean anomaly at epoch: 109.3575°
orbit number at epoch: 82211

The dashed part of the orbit path shows where the satellite is in the earth's shadow,  

DLR